Allen, KS

4:50 PM CDT on September 01, 2015 (GMT -0500)
Timmerman School Area | | Change Station
CLOSE
Current Station
Personal Weather Station
Location: Emporia, KS
Elevation: 1214 ft
Nearby Weather Stations

Elev 1214 ft 38.43 °N, 96.22 °W | Updated 21 seconds ago

Clear
Clear
89.1 °F
Feels Like 85 °F
N
13.4
Wind Variable Wind from SE
Gusts 15.0 mph

Today
High -- | Low -- °F
--% Chance of Precip.
Yesterday
High -- | Low -- °F
Precip. -- in
6:54 AM 7:55 PM
Waning Gibbous, 86% visible
Pressure 29.95 in
Visibility 10.0 miles
Clouds Clear
Heat Index 85 °F
Dew Point 26 °F
Humidity 10%
Rainfall 0.00 in
Snow Depth Not available.
UV 6 out of 12
Pollen 11.20 out of 12
Air Quality Not available.
Flu Activity Not available.
METAR KEMP 012053Z AUTO 16017KT 10SM CLR 31/18 A2998 RMK AO2 SLP140 T03110178 56009
Pressure 29.95 in
Visibility 10.0 miles
Clouds Clear
Heat Index 85 °F
Dew Point 26 °F
Humidity 10%
Rainfall 0.00 in
Snow Depth Not available.
UV 6 out of 12
Pollen 11.20 out of 12
Air Quality Not available.
Flu Activity Not available.
METAR KEMP 012053Z AUTO 16017KT 10SM CLR 31/18 A2998 RMK AO2 SLP140 T03110178 56009

10-Day Weather Forecast

×

Almanac

Astronomy

Sep. 01, 2015 Rise Set
Actual Time
Civil Twilight
Nautical Twilight
Astronomical Twilight
Moon
Length of Visible Light
Length of Day
Tomorrow will be .
, % of the Moon is Illuminated

Today's Extremes

State Highs State Lows

Community

WunderPhotos

Upload Photos

1,851,628 photos uploaded!

WunderBlogs® & News

Nearby

Air Quality

  Air Quality AQ Index Pollutant
Not available.

Snow Depth

Station Depth Elevation

Earthquake Activity

City Distance Mag. Time & Date
Minimum magnitude displayed is 2.5.

Coastal Water Temperatures

Place Temperature

Stations

Nearby Weather Stations

Station Location Temp. Windchill Dew Point Humidity Wind Precip. Elev Updated Type